Find Starlink 4439

NORAD ID: 53498 Int'l Des: 2022-099 Owner: SPXS Country: US Constellation: starlink operational
LEOCIRCULARRETROGRADESSO

Live-Position

3D-Globus wird geladen...

Über Starlink 4439

Beschreibung wird geladen...

Nächste Überflüge

Passes for default location (London). Set your location on the main map for personalized predictions.

Höhenverlauf

Loading altitude history...

Zweizeiliger Elementsatz

1 53498U 22099AK 26104.88647734 .00000622 00000-0 47310-4 0 9990
2 53498 97.6027 226.8506 0000327 155.7263 204.3979 15.05650136201494
Epoch: 14. Apr. 2026 • Age: 10 hours

Aktueller Status

Höhe 562.6 km
Geschwindigkeit 7.59 km/s
Subsatellitenpunkt 78.04°N, 123.05°W
Startdatum 12. Aug. 2022
Alter 3.6 years
Typ internet

Technische Details

Klassifizierung Payload
Masse 300.00 kg
Trockenmasse 275.00 kg
Gesamtmasse 300.00 kg
Länge 0.20 m
Durchmesser 2.80 m
Spannweite 9.00 m
Form Box + pan
Hersteller SPXS
Bus-Typ Starlink
Phasenstatus In Orbit
Besitzer/Staat SPXS/US

Most Searched